Voltar ao catálogo

STARLINK-6092

AtivoComunicaçõesVLEO
NORAD 56121·PAYLOAD·🇺🇸 United States

Lançado Mar 29, 2023 de Cape Canaveral Space Force Station

Loading…

Próximas Passagens (próximas 24 horas)

TLE

AtualizadoSource: CelesTrak SupGP

Época: Sep 14, 2026, 21:06 UTC

1 56121C 23046AE  26257.87965278 -.00022889  00000+0 -82921-3 0  2576
2 56121  43.0002 158.7572 0001066 247.4745  47.7095 15.27582549    18

Acompanhe STARLINK-6092 em tempo real com AllMySat

Download on the App Store